2015 Con1East Gauge ,,,
Hourly Stream Data (Summary),,,
,,,
Dataset Reference Format:,,,
,"[Year of data collection] Stream data from Dry Creek Experimental Watershed. Watershed Process Research Group, Boise State University",,
, URL: earth.boisestate.edu/drycreek. Multi-paged. [month and day of data download].,,
,,,
Dataset Header Description,,,
,Column(s)| Variable| Description| [units],,
,1st Column  | DateTime| Time stamp of variable collection time* [MM/DD/YY  hr:mm],,
,2nd Column|Discharge -L/s|Stream Discharge instantaneous measurements [L/s],,
,3rd Column |StreamTemp-C| Stream Temperature [C],,
,4th Column |StreamEC-mS/cm| Stream Electrical Conductivity [mS/cm],,
,,,
,,,
,**Note: -6999 denotes missing data,,
,,,
,,,
DateTime,Discharge-L/s,StreamTemp-C,StreamEC-mS/cm
1/1/2015 0:00,36.40,-0.1,0.131
1/1/2015 1:00,36.40,-0.1,0.132
1/1/2015 2:00,36.40,-0.1,0.132
1/1/2015 3:00,36.40,-0.1,0.133
1/1/2015 4:00,36.40,-0.1,0.133
1/1/2015 5:00,36.40,-0.1,0.133
1/1/2015 6:00,36.40,-0.1,0.133
1/1/2015 7:00,36.40,-0.1,0.134
1/1/2015 8:00,36.40,-0.1,0.134
1/1/2015 9:00,36.40,-0.1,0.134
1/1/2015 10:00,36.40,-0.1,0.134
1/1/2015 11:00,36.40,-0.1,0.134
1/1/2015 12:00,36.40,-0.1,0.133
1/1/2015 13:00,36.40,-0.1,0.133
1/1/2015 14:00,36.40,-0.1,0.133
1/1/2015 15:00,36.40,-0.1,0.132
1/1/2015 16:00,32.16,-0.1,0.131
1/1/2015 17:00,29.25,-0.1,0.131
1/1/2015 18:00,28.48,-0.1,0.131
1/1/2015 19:00,27.47,-0.1,0.131
1/1/2015 20:00,27.23,-0.1,0.131
1/1/2015 21:00,26.49,-0.1,0.131
1/1/2015 22:00,26.24,-0.1,0.131
1/1/2015 23:00,26.00,-0.1,0.131
1/2/2015 0:00,25.52,-0.1,0.132
1/2/2015 1:00,25.52,-0.1,0.132
1/2/2015 2:00,25.28,-0.1,0.132
1/2/2015 3:00,25.04,0,0.132
1/2/2015 4:00,25.28,-0.1,0.132
1/2/2015 5:00,25.28,-0.1,0.132
1/2/2015 6:00,25.52,0,0.132
1/2/2015 7:00,25.52,0,0.132
1/2/2015 8:00,25.76,0,0.132
1/2/2015 9:00,26.00,0,0.132
1/2/2015 10:00,24.57,0,0.132
1/2/2015 11:00,24.57,0,0.132
1/2/2015 12:00,26.98,0,0.132
1/2/2015 13:00,24.57,0,0.132
1/2/2015 14:00,25.28,0,0.131
1/2/2015 15:00,26.00,0,0.131
1/2/2015 16:00,26.00,0,0.131
1/2/2015 17:00,26.49,0,0.13
1/2/2015 18:00,25.76,0,0.13
1/2/2015 19:00,26.49,0,0.13
1/2/2015 20:00,26.24,0,0.13
1/2/2015 21:00,26.24,0,0.13
1/2/2015 22:00,26.73,0,0.129
1/2/2015 23:00,27.47,0,0.129
1/3/2015 0:00,27.47,0,0.129
1/3/2015 1:00,25.52,0,0.129
1/3/2015 2:00,25.76,0,0.129
1/3/2015 3:00,26.49,0,0.128
1/3/2015 4:00,27.23,0,0.128
1/3/2015 5:00,26.98,0,0.128
1/3/2015 6:00,26.98,0,0.128
1/3/2015 7:00,27.23,0,0.128
1/3/2015 8:00,27.23,0,0.128
1/3/2015 9:00,26.00,0,0.127
1/3/2015 10:00,27.98,0,0.127
1/3/2015 11:00,26.73,0,0.127
1/3/2015 12:00,26.00,0,0.127
1/3/2015 13:00,27.72,0,0.127
1/3/2015 14:00,26.73,0,0.127
1/3/2015 15:00,27.23,0,0.127
1/3/2015 16:00,26.98,0,0.127
1/3/2015 17:00,27.23,0,0.127
1/3/2015 18:00,26.49,0,0.126
1/3/2015 19:00,27.23,0,0.126
1/3/2015 20:00,27.23,0,0.126
1/3/2015 21:00,26.98,0,0.126
1/3/2015 22:00,27.23,0,0.126
1/3/2015 23:00,26.73,0,0.126
1/4/2015 0:00,26.73,0,0.126
1/4/2015 1:00,26.73,0,0.125
1/4/2015 2:00,27.72,0,0.125
1/4/2015 3:00,26.00,0,0.125
1/4/2015 4:00,26.49,0,0.125
1/4/2015 5:00,26.00,0,0.125
1/4/2015 6:00,27.23,0,0.125
1/4/2015 7:00,26.73,0,0.125
1/4/2015 8:00,26.00,0,0.125
1/4/2015 9:00,26.73,0,0.125
1/4/2015 10:00,27.23,0,0.125
1/4/2015 11:00,27.47,0,0.125
1/4/2015 12:00,26.49,0,0.125
1/4/2015 13:00,26.98,0,0.124
1/4/2015 14:00,26.00,0,0.124
1/4/2015 15:00,26.49,0,0.124
1/4/2015 16:00,27.23,0,0.123
1/4/2015 17:00,27.47,0,0.123
1/4/2015 18:00,25.76,0,0.123
1/4/2015 19:00,27.72,0,0.123
1/4/2015 20:00,27.23,0,0.123
1/4/2015 21:00,27.23,0,0.123
1/4/2015 22:00,26.98,0,0.123
1/4/2015 23:00,25.76,0,0.123
1/5/2015 0:00,27.23,0,0.123
1/5/2015 1:00,26.73,0,0.123
1/5/2015 2:00,28.23,0,0.123
1/5/2015 3:00,27.98,0.1,0.122
1/5/2015 4:00,26.49,0.1,0.122
1/5/2015 5:00,24.81,0.1,0.122
1/5/2015 6:00,26.49,0.1,0.122
1/5/2015 7:00,27.72,0.1,0.122
1/5/2015 8:00,27.98,0.1,0.122
1/5/2015 9:00,27.98,0.1,0.121
1/5/2015 10:00,29.51,0.1,0.121
1/5/2015 11:00,28.48,0.1,0.121
1/5/2015 12:00,27.98,0.1,0.121
1/5/2015 13:00,29.25,0.1,0.12
1/5/2015 14:00,28.74,0.1,0.12
1/5/2015 15:00,30.03,0.1,0.119
1/5/2015 16:00,31.09,0,0.119
1/5/2015 17:00,31.89,0,0.118
1/5/2015 18:00,29.77,0,0.118
1/5/2015 19:00,31.89,0.1,0.118
1/5/2015 20:00,30.29,0.1,0.118
1/5/2015 21:00,30.82,0.1,0.118
1/5/2015 22:00,29.77,0.1,0.117
1/5/2015 23:00,30.56,0.2,0.118
1/6/2015 0:00,28.99,0.2,0.118
1/6/2015 1:00,28.99,0.2,0.118
1/6/2015 2:00,29.25,0.2,0.119
1/6/2015 3:00,30.82,0.3,0.119
1/6/2015 4:00,29.25,0.3,0.119
1/6/2015 5:00,29.51,0.4,0.119
1/6/2015 6:00,29.77,0.4,0.12
1/6/2015 7:00,30.29,0.4,0.12
1/6/2015 8:00,29.77,0.5,0.12
1/6/2015 9:00,29.25,0.5,0.12
1/6/2015 10:00,28.99,0.6,0.12
1/6/2015 11:00,29.25,0.6,0.12
1/6/2015 12:00,30.29,0.7,0.12
1/6/2015 13:00,29.25,0.7,0.12
1/6/2015 14:00,29.51,0.8,0.12
1/6/2015 15:00,30.29,0.7,0.12
1/6/2015 16:00,28.74,0.7,0.119
1/6/2015 17:00,30.56,0.6,0.119
1/6/2015 18:00,30.82,0.5,0.119
1/6/2015 19:00,34.10,0.3,0.118
1/6/2015 20:00,31.35,0.2,0.118
1/6/2015 21:00,32.71,0.2,0.118
1/6/2015 22:00,32.71,0.3,0.118
1/6/2015 23:00,32.44,0.4,0.119
1/7/2015 0:00,32.44,0.5,0.119
1/7/2015 1:00,30.82,0.7,0.119
1/7/2015 2:00,33.26,0.7,0.119
1/7/2015 3:00,31.89,0.8,0.119
1/7/2015 4:00,32.71,0.9,0.119
1/7/2015 5:00,31.35,0.9,0.119
1/7/2015 6:00,31.35,1,0.12
1/7/2015 7:00,31.35,1,0.12
1/7/2015 8:00,31.89,1,0.12
1/7/2015 9:00,32.71,1.1,0.12
1/7/2015 10:00,31.62,1.1,0.12
1/7/2015 11:00,32.71,1.1,0.12
1/7/2015 12:00,32.44,1.1,0.12
1/7/2015 13:00,31.35,1.2,0.12
1/7/2015 14:00,31.09,1.2,0.12
1/7/2015 15:00,30.82,1.2,0.12
1/7/2015 16:00,33.26,1.2,0.12
1/7/2015 17:00,33.26,1.2,0.12
1/7/2015 18:00,33.82,1.2,0.12
1/7/2015 19:00,34.38,1,0.119
1/7/2015 20:00,34.66,0.8,0.119
1/7/2015 21:00,33.26,0.8,0.119
1/7/2015 22:00,34.66,0.9,0.119
1/7/2015 23:00,34.10,1,0.119
1/8/2015 0:00,34.66,1.1,0.119
1/8/2015 1:00,33.82,1.1,0.119
1/8/2015 2:00,33.82,1.2,0.119
1/8/2015 3:00,33.26,1.2,0.119
1/8/2015 4:00,33.54,1.2,0.119
1/8/2015 5:00,34.10,1.2,0.119
1/8/2015 6:00,32.44,1.2,0.119
1/8/2015 7:00,33.54,1.2,0.119
1/8/2015 8:00,33.54,1.2,0.12
1/8/2015 9:00,31.89,1.2,0.12
1/8/2015 10:00,34.10,1.2,0.12
1/8/2015 11:00,33.26,1.2,0.12
1/8/2015 12:00,33.82,1.3,0.12
1/8/2015 13:00,33.54,1.3,0.12
1/8/2015 14:00,32.44,1.3,0.12
1/8/2015 15:00,33.54,1.3,0.12
1/8/2015 16:00,32.99,1.4,0.12
1/8/2015 17:00,34.10,1.4,0.12
1/8/2015 18:00,32.99,1.4,0.12
1/8/2015 19:00,32.99,1.3,0.12
1/8/2015 20:00,33.54,1.3,0.12
1/8/2015 21:00,34.10,1.2,0.12
1/8/2015 22:00,34.38,1.2,0.12
1/8/2015 23:00,35.52,1.2,0.12
1/9/2015 0:00,35.23,1.2,0.12
1/9/2015 1:00,33.26,1.2,0.12
1/9/2015 2:00,33.82,1.2,0.12
1/9/2015 3:00,32.99,1.2,0.12
1/9/2015 4:00,34.95,1.2,0.12
1/9/2015 5:00,32.71,1.2,0.12
1/9/2015 6:00,32.71,1.2,0.12
1/9/2015 7:00,32.71,1.1,0.12
1/9/2015 8:00,33.26,1.1,0.12
1/9/2015 9:00,34.38,1.1,0.12
1/9/2015 10:00,33.54,1.1,0.12
1/9/2015 11:00,34.66,1.1,0.12
1/9/2015 12:00,33.82,1.1,0.119
1/9/2015 13:00,36.68,1.2,0.119
1/9/2015 14:00,33.26,1.2,0.119
1/9/2015 15:00,34.95,1.3,0.119
1/9/2015 16:00,35.81,1.4,0.118
1/9/2015 17:00,38.16,1.4,0.118
1/9/2015 18:00,34.38,1.4,0.118
1/9/2015 19:00,34.10,1.4,0.118
1/9/2015 20:00,35.81,1.4,0.118
1/9/2015 21:00,33.82,1.4,0.118
1/9/2015 22:00,36.10,1.4,0.118
1/9/2015 23:00,36.39,1.4,0.118
1/10/2015 0:00,36.10,1.4,0.119
1/10/2015 1:00,36.68,1.4,0.119
1/10/2015 2:00,34.66,1.4,0.119
1/10/2015 3:00,36.10,1.4,0.119
1/10/2015 4:00,35.81,1.4,0.119
1/10/2015 5:00,34.95,1.3,0.119
1/10/2015 6:00,34.38,1.3,0.119
1/10/2015 7:00,33.26,1.3,0.119
1/10/2015 8:00,32.71,1.3,0.119
1/10/2015 9:00,34.38,1.3,0.119
1/10/2015 10:00,32.99,1.3,0.119
1/10/2015 11:00,35.52,1.3,0.118
1/10/2015 12:00,33.82,1.4,0.118
1/10/2015 13:00,35.52,1.4,0.118
1/10/2015 14:00,35.52,1.5,0.118
1/10/2015 15:00,34.10,1.5,0.118
1/10/2015 16:00,35.23,1.5,0.118
1/10/2015 17:00,32.71,1.6,0.118
1/10/2015 18:00,35.23,1.6,0.118
1/10/2015 19:00,34.38,1.6,0.118
1/10/2015 20:00,35.52,1.6,0.118
1/10/2015 21:00,36.39,1.6,0.118
1/10/2015 22:00,36.68,1.6,0.118
1/10/2015 23:00,32.71,1.6,0.118
1/11/2015 0:00,34.95,1.6,0.118
1/11/2015 1:00,35.23,1.6,0.118
1/11/2015 2:00,35.52,1.6,0.118
1/11/2015 3:00,35.81,1.6,0.118
1/11/2015 4:00,34.95,1.6,0.118
1/11/2015 5:00,34.66,1.6,0.118
1/11/2015 6:00,34.95,1.7,0.118
1/11/2015 7:00,38.76,1.7,0.118
1/11/2015 8:00,34.95,1.6,0.117
1/11/2015 9:00,34.95,1.6,0.117
1/11/2015 10:00,35.52,1.6,0.117
1/11/2015 11:00,35.52,1.6,0.117
1/11/2015 12:00,36.39,1.7,0.117
1/11/2015 13:00,37.86,1.7,0.116
1/11/2015 14:00,38.76,1.8,0.116
1/11/2015 15:00,34.38,1.7,0.116
1/11/2015 16:00,39.67,1.7,0.116
1/11/2015 17:00,36.68,1.7,0.116
1/11/2015 18:00,37.56,1.7,0.116
1/11/2015 19:00,37.86,1.7,0.115
1/11/2015 20:00,36.68,1.7,0.116
1/11/2015 21:00,34.66,1.7,0.116
1/11/2015 22:00,36.97,1.7,0.116
1/11/2015 23:00,36.39,1.8,0.116
1/12/2015 0:00,34.95,1.8,0.116
1/12/2015 1:00,36.39,1.8,0.116
1/12/2015 2:00,35.81,1.8,0.116
1/12/2015 3:00,36.39,1.8,0.116
1/12/2015 4:00,35.52,1.7,0.116
1/12/2015 5:00,39.06,1.7,0.116
1/12/2015 6:00,34.95,1.7,0.116
1/12/2015 7:00,35.81,1.7,0.116
1/12/2015 8:00,35.23,1.7,0.116
1/12/2015 9:00,35.23,1.7,0.116
1/12/2015 10:00,36.68,1.8,0.116
1/12/2015 11:00,35.23,1.8,0.116
1/12/2015 12:00,35.52,1.8,0.116
1/12/2015 13:00,36.39,1.9,0.116
1/12/2015 14:00,36.97,1.9,0.116
1/12/2015 15:00,34.38,1.9,0.116
1/12/2015 16:00,35.81,2,0.116
1/12/2015 17:00,33.54,1.9,0.116
1/12/2015 18:00,35.81,1.9,0.116
1/12/2015 19:00,32.71,1.9,0.116
1/12/2015 20:00,33.26,1.9,0.116
1/12/2015 21:00,35.81,1.9,0.116
1/12/2015 22:00,32.71,1.8,0.117
1/12/2015 23:00,33.54,1.8,0.117
1/13/2015 0:00,32.71,1.7,0.117
1/13/2015 1:00,34.10,1.6,0.117
1/13/2015 2:00,30.56,1.5,0.117
1/13/2015 3:00,32.99,1.4,0.117
1/13/2015 4:00,32.16,1.3,0.118
1/13/2015 5:00,34.38,1.2,0.118
1/13/2015 6:00,33.54,1.1,0.118
1/13/2015 7:00,31.35,1,0.118
1/13/2015 8:00,31.09,0.9,0.118
1/13/2015 9:00,31.35,0.8,0.118
1/13/2015 10:00,32.71,0.7,0.118
1/13/2015 11:00,31.09,0.7,0.118
1/13/2015 12:00,30.56,0.6,0.118
1/13/2015 13:00,33.26,0.6,0.118
1/13/2015 14:00,31.09,0.7,0.118
1/13/2015 15:00,32.16,0.7,0.118
1/13/2015 16:00,32.16,0.8,0.118
1/13/2015 17:00,32.71,0.9,0.118
1/13/2015 18:00,32.99,1,0.118
1/13/2015 19:00,31.35,1,0.118
1/13/2015 20:00,32.44,1,0.118
1/13/2015 21:00,33.54,0.9,0.118
1/13/2015 22:00,32.16,0.8,0.118
1/13/2015 23:00,32.71,0.8,0.118
1/14/2015 0:00,31.89,0.7,0.118
1/14/2015 1:00,32.99,0.6,0.118
1/14/2015 2:00,31.09,0.5,0.119
1/14/2015 3:00,31.89,0.5,0.119
1/14/2015 4:00,31.35,0.5,0.119
1/14/2015 5:00,32.71,0.5,0.119
1/14/2015 6:00,29.25,0.5,0.119
1/14/2015 7:00,30.03,0.5,0.119
1/14/2015 8:00,33.54,0.5,0.119
1/14/2015 9:00,30.82,0.5,0.119
1/14/2015 10:00,31.35,0.5,0.119
1/14/2015 11:00,29.77,0.6,0.119
1/14/2015 12:00,31.09,0.6,0.118
1/14/2015 13:00,32.16,0.7,0.118
1/14/2015 14:00,33.26,0.7,0.118
1/14/2015 15:00,33.54,0.7,0.118
1/14/2015 16:00,32.44,0.8,0.118
1/14/2015 17:00,32.71,0.8,0.118
1/14/2015 18:00,32.99,0.9,0.118
1/14/2015 19:00,31.62,0.9,0.118
1/14/2015 20:00,31.89,0.9,0.118
1/14/2015 21:00,33.54,0.9,0.118
1/14/2015 22:00,33.26,0.8,0.118
1/14/2015 23:00,34.10,0.8,0.118
1/15/2015 0:00,31.89,0.7,0.118
1/15/2015 1:00,32.99,0.7,0.118
1/15/2015 2:00,30.82,0.6,0.119
1/15/2015 3:00,30.56,0.6,0.119
1/15/2015 4:00,26.00,0.5,0.119
1/15/2015 5:00,27.47,0.4,0.119
1/15/2015 6:00,24.81,0.3,0.119
1/15/2015 7:00,22.07,0.2,0.119
1/15/2015 8:00,20.98,0.1,0.12
1/15/2015 9:00,25.52,0.1,0.12
1/15/2015 10:00,39.36,0,0.12
1/15/2015 11:00,83.19,0,0.121
1/15/2015 12:00,38.76,0,0.121
1/15/2015 13:00,30.56,0,0.121
1/15/2015 14:00,34.38,0.1,0.12
1/15/2015 15:00,36.10,0.1,0.12
1/15/2015 16:00,37.27,0,0.12
1/15/2015 17:00,37.86,0,0.119
1/15/2015 18:00,36.68,0.1,0.119
1/15/2015 19:00,36.10,0.1,0.118
1/15/2015 20:00,33.54,0.2,0.118
1/15/2015 21:00,31.09,0.3,0.118
1/15/2015 22:00,31.89,0.4,0.117
1/15/2015 23:00,32.99,0.5,0.117
1/16/2015 0:00,31.62,0.5,0.117
1/16/2015 1:00,33.26,0.6,0.117
1/16/2015 2:00,32.44,0.7,0.118
1/16/2015 3:00,32.16,0.7,0.118
1/16/2015 4:00,32.99,0.8,0.118
1/16/2015 5:00,34.10,0.8,0.117
1/16/2015 6:00,34.10,0.8,0.117
1/16/2015 7:00,34.95,0.8,0.116
1/16/2015 8:00,35.23,0.9,0.115
1/16/2015 9:00,38.76,0.9,0.114
1/16/2015 10:00,36.68,0.8,0.112
1/16/2015 11:00,38.46,0.8,0.112
1/16/2015 12:00,36.39,0.7,0.111
1/16/2015 13:00,36.68,0.8,0.111
1/16/2015 14:00,36.68,0.8,0.111
1/16/2015 15:00,36.68,0.9,0.111
1/16/2015 16:00,37.86,0.9,0.111
1/16/2015 17:00,35.81,0.9,0.111
1/16/2015 18:00,35.52,0.9,0.111
1/16/2015 19:00,36.97,1,0.111
1/16/2015 20:00,36.39,1,0.111
1/16/2015 21:00,35.52,1,0.112
1/16/2015 22:00,36.39,1,0.112
1/16/2015 23:00,33.54,1,0.113
1/17/2015 0:00,34.38,1,0.113
1/17/2015 1:00,33.82,1,0.114
1/17/2015 2:00,33.26,1,0.114
1/17/2015 3:00,35.23,1,0.114
1/17/2015 4:00,34.95,1,0.114
1/17/2015 5:00,33.82,1,0.115
1/17/2015 6:00,32.99,1,0.115
1/17/2015 7:00,33.26,1,0.115
1/17/2015 8:00,32.16,1,0.115
1/17/2015 9:00,32.16,1,0.116
1/17/2015 10:00,33.54,1,0.116
1/17/2015 11:00,32.44,1.1,0.116
1/17/2015 12:00,33.26,1.2,0.116
1/17/2015 13:00,34.10,1.3,0.115
1/17/2015 14:00,35.23,1.4,0.115
1/17/2015 15:00,34.10,1.5,0.115
1/17/2015 16:00,34.66,1.6,0.115
1/17/2015 17:00,36.10,1.6,0.115
1/17/2015 18:00,35.81,1.6,0.114
1/17/2015 19:00,36.10,1.6,0.114
1/17/2015 20:00,38.16,1.6,0.113
1/17/2015 21:00,39.06,1.5,0.113
1/17/2015 22:00,38.46,1.5,0.113
1/17/2015 23:00,36.68,1.5,0.112
1/18/2015 0:00,36.97,1.6,0.112
1/18/2015 1:00,36.39,1.6,0.112
1/18/2015 2:00,38.76,1.6,0.112
1/18/2015 3:00,39.67,1.6,0.112
1/18/2015 4:00,38.16,1.6,0.112
1/18/2015 5:00,40.28,1.6,0.112
1/18/2015 6:00,40.28,1.6,0.112
1/18/2015 7:00,36.68,1.6,0.113
1/18/2015 8:00,39.06,1.7,0.112
1/18/2015 9:00,36.39,1.7,0.112
1/18/2015 10:00,40.28,1.7,0.112
1/18/2015 11:00,38.16,1.7,0.111
1/18/2015 12:00,41.21,1.8,0.111
1/18/2015 13:00,41.52,1.7,0.109
1/18/2015 14:00,44.72,1.6,0.108
1/18/2015 15:00,51.16,1.5,0.106
1/18/2015 16:00,51.51,1.4,0.105
1/18/2015 17:00,53.29,1.3,0.104
1/18/2015 18:00,53.66,1.2,0.103
1/18/2015 19:00,56.22,1.2,0.103
1/18/2015 20:00,55.11,1.4,0.102
1/18/2015 21:00,54.74,1.5,0.103
1/18/2015 22:00,51.87,1.6,0.103
1/18/2015 23:00,53.66,1.7,0.103
1/19/2015 0:00,48.73,1.7,0.103
1/19/2015 1:00,48.39,1.7,0.104
1/19/2015 2:00,45.05,1.7,0.104
1/19/2015 3:00,46.04,1.7,0.104
1/19/2015 4:00,43.75,1.6,0.105
1/19/2015 5:00,46.37,1.6,0.105
1/19/2015 6:00,43.75,1.5,0.105
1/19/2015 7:00,43.75,1.5,0.106
1/19/2015 8:00,43.43,1.4,0.106
1/19/2015 9:00,42.79,1.4,0.106
1/19/2015 10:00,43.11,1.3,0.106
1/19/2015 11:00,42.79,1.3,0.106
1/19/2015 12:00,41.84,1.3,0.106
1/19/2015 13:00,44.40,1.3,0.106
1/19/2015 14:00,42.15,1.3,0.106
1/19/2015 15:00,43.43,1.4,0.106
1/19/2015 16:00,44.07,1.5,0.106
1/19/2015 17:00,42.79,1.5,0.106
1/19/2015 18:00,42.47,1.5,0.106
1/19/2015 19:00,44.72,1.5,0.106
1/19/2015 20:00,44.40,1.4,0.106
1/19/2015 21:00,43.75,1.4,0.106
1/19/2015 22:00,41.84,1.3,0.106
1/19/2015 23:00,41.21,1.2,0.107
1/20/2015 0:00,44.40,1.1,0.107
1/20/2015 1:00,44.72,1.1,0.107
1/20/2015 2:00,43.75,1,0.107
1/20/2015 3:00,44.07,0.9,0.107
1/20/2015 4:00,42.79,0.9,0.107
1/20/2015 5:00,43.75,0.8,0.107
1/20/2015 6:00,41.52,0.7,0.107
1/20/2015 7:00,40.28,0.6,0.107
1/20/2015 8:00,38.76,0.5,0.107
1/20/2015 9:00,44.72,0.4,0.107
1/20/2015 10:00,41.52,0.4,0.107
1/20/2015 11:00,40.28,0.4,0.107
1/20/2015 12:00,39.67,0.4,0.107
1/20/2015 13:00,41.21,0.4,0.107
1/20/2015 14:00,40.90,0.4,0.107
1/20/2015 15:00,42.47,0.5,0.107
1/20/2015 16:00,40.59,0.6,0.107
1/20/2015 17:00,40.59,0.7,0.106
1/20/2015 18:00,44.40,0.8,0.106
1/20/2015 19:00,43.75,0.8,0.106
1/20/2015 20:00,42.47,0.7,0.107
1/20/2015 21:00,41.52,0.6,0.107
1/20/2015 22:00,41.21,0.5,0.107
1/20/2015 23:00,42.47,0.4,0.107
1/21/2015 0:00,41.84,0.3,0.107
1/21/2015 1:00,40.28,0.2,0.107
1/21/2015 2:00,35.52,0.1,0.107
1/21/2015 3:00,33.26,0.1,0.107
1/21/2015 4:00,30.56,0,0.107
1/21/2015 5:00,30.56,0,0.107
1/21/2015 6:00,30.56,0,0.107
1/21/2015 7:00,32.99,0,0.107
1/21/2015 8:00,171.25,0,0.107
1/21/2015 9:00,473.31,0,0.109
1/21/2015 10:00,530.55,0,0.108
1/21/2015 11:00,536.98,0,0.108
1/21/2015 12:00,510.23,0,0.108
1/21/2015 13:00,122.29,0,0.108
1/21/2015 14:00,46.70,0,0.108
1/21/2015 15:00,54.74,0,0.108
1/21/2015 16:00,51.16,0.1,0.108
1/21/2015 17:00,54.38,0.1,0.108
1/21/2015 18:00,54.02,0.1,0.107
1/21/2015 19:00,49.08,0.1,0.107
1/21/2015 20:00,45.05,0.2,0.107
1/21/2015 21:00,45.38,0.3,0.107
1/21/2015 22:00,42.79,0.3,0.107
1/21/2015 23:00,41.84,0.2,0.107
1/22/2015 0:00,41.52,0.2,0.107
1/22/2015 1:00,37.86,0.1,0.107
1/22/2015 2:00,35.52,0,0.107
1/22/2015 3:00,36.39,0,0.108
1/22/2015 4:00,555.24,0,0.108
1/22/2015 5:00,700.08,0,0.108
1/22/2015 6:00,778.71,0,0.108
1/22/2015 7:00,841.99,0,0.109
1/22/2015 8:00,884.00,0,0.109
1/22/2015 9:00,921.90,0,0.109
1/22/2015 10:00,937.66,0,0.109
1/22/2015 11:00,843.65,0,0.109
1/22/2015 12:00,638.77,0,0.109
1/22/2015 13:00,144.38,0,0.109
1/22/2015 14:00,54.38,0.1,0.102
1/22/2015 15:00,54.38,0.1,0.102
1/22/2015 16:00,50.46,0.1,0.101
1/22/2015 17:00,47.71,0.1,0.101
1/22/2015 18:00,43.75,0.3,0.101
1/22/2015 19:00,42.47,0.4,0.101
1/22/2015 20:00,41.84,0.4,0.101
1/22/2015 21:00,40.90,0.4,0.101
1/22/2015 22:00,41.21,0.4,0.101
1/22/2015 23:00,39.36,0.4,0.101
1/23/2015 0:00,39.67,0.4,0.101
1/23/2015 1:00,38.46,0.3,0.101
1/23/2015 2:00,40.59,0.3,0.101
1/23/2015 3:00,40.90,0.2,0.101
1/23/2015 4:00,38.46,0.1,0.102
1/23/2015 5:00,36.97,0.1,0.102
1/23/2015 6:00,37.86,0,0.102
1/23/2015 7:00,36.97,0,0.102
1/23/2015 8:00,38.16,0,0.102
1/23/2015 9:00,36.10,0,0.102
1/23/2015 10:00,39.36,0,0.102
1/23/2015 11:00,38.76,0,0.102
1/23/2015 12:00,37.27,0.1,0.102
1/23/2015 13:00,37.27,0.1,0.102
1/23/2015 14:00,40.90,0.1,0.102
1/23/2015 15:00,39.97,0.2,0.102
1/23/2015 16:00,37.86,0.3,0.102
1/23/2015 17:00,39.36,0.4,0.102
1/23/2015 18:00,40.28,0.4,0.102
1/23/2015 19:00,36.68,0.4,0.102
1/23/2015 20:00,39.36,0.4,0.102
1/23/2015 21:00,38.46,0.4,0.102
1/23/2015 22:00,38.16,0.4,0.102
1/23/2015 23:00,37.27,0.4,0.102
1/24/2015 0:00,37.56,0.4,0.102
1/24/2015 1:00,37.27,0.4,0.102
1/24/2015 2:00,37.56,0.5,0.102
1/24/2015 3:00,36.97,0.5,0.102
1/24/2015 4:00,38.76,0.6,0.102
1/24/2015 5:00,39.97,0.7,0.102
1/24/2015 6:00,38.76,0.8,0.102
1/24/2015 7:00,40.59,0.8,0.102
1/24/2015 8:00,38.16,0.9,0.102
1/24/2015 9:00,40.28,1,0.102
1/24/2015 10:00,39.67,1.1,0.102
1/24/2015 11:00,39.36,1.2,0.102
1/24/2015 12:00,38.76,1.3,0.102
1/24/2015 13:00,41.52,1.5,0.102
1/24/2015 14:00,41.52,1.6,0.102
1/24/2015 15:00,38.76,1.7,0.102
1/24/2015 16:00,43.11,1.8,0.101
1/24/2015 17:00,40.28,1.8,0.101
1/24/2015 18:00,41.84,1.8,0.101
1/24/2015 19:00,42.15,1.8,0.101
1/24/2015 20:00,40.59,1.8,0.101
1/24/2015 21:00,40.28,1.8,0.101
1/24/2015 22:00,39.67,1.8,0.101
1/24/2015 23:00,39.06,1.7,0.101
1/25/2015 0:00,39.67,1.7,0.101
1/25/2015 1:00,40.90,1.7,0.101
1/25/2015 2:00,40.28,1.7,0.101
1/25/2015 3:00,40.28,1.6,0.101
1/25/2015 4:00,36.97,1.6,0.101
1/25/2015 5:00,41.21,1.6,0.102
1/25/2015 6:00,39.06,1.5,0.102
1/25/2015 7:00,39.36,1.5,0.102
1/25/2015 8:00,40.28,1.5,0.102
1/25/2015 9:00,38.46,1.5,0.102
1/25/2015 10:00,39.06,1.4,0.101
1/25/2015 11:00,39.67,1.4,0.102
1/25/2015 12:00,38.16,1.5,0.102
1/25/2015 13:00,39.97,1.5,0.102
1/25/2015 14:00,40.59,1.7,0.101
1/25/2015 15:00,38.16,1.9,0.101
1/25/2015 16:00,38.46,2,0.101
1/25/2015 17:00,45.71,2.1,0.101
1/25/2015 18:00,43.11,2.1,0.101
1/25/2015 19:00,40.90,2,0.101
1/25/2015 20:00,43.11,2,0.101
1/25/2015 21:00,43.11,1.9,0.101
1/25/2015 22:00,39.97,1.9,0.101
1/25/2015 23:00,42.79,1.8,0.102
1/26/2015 0:00,41.52,1.8,0.102
1/26/2015 1:00,39.97,1.7,0.102
1/26/2015 2:00,39.36,1.6,0.102
1/26/2015 3:00,37.86,1.6,0.102
1/26/2015 4:00,39.36,1.6,0.102
1/26/2015 5:00,39.36,1.5,0.102
1/26/2015 6:00,40.28,1.5,0.102
1/26/2015 7:00,39.97,1.5,0.102
1/26/2015 8:00,39.67,1.4,0.102
1/26/2015 9:00,38.46,1.4,0.102
1/26/2015 10:00,40.90,1.4,0.102
1/26/2015 11:00,40.28,1.4,0.102
1/26/2015 12:00,40.90,1.5,0.102
1/26/2015 13:00,39.06,1.6,0.102
1/26/2015 14:00,43.43,1.7,0.102
1/26/2015 15:00,41.84,1.7,0.102
1/26/2015 16:00,39.06,1.8,0.102
1/26/2015 17:00,42.15,1.8,0.102
1/26/2015 18:00,40.59,1.8,0.102
1/26/2015 19:00,43.43,1.8,0.102
1/26/2015 20:00,40.59,1.8,0.102
1/26/2015 21:00,43.43,1.8,0.102
1/26/2015 22:00,44.40,1.8,0.102
1/26/2015 23:00,44.07,1.7,0.102
1/27/2015 0:00,41.84,1.7,0.102
1/27/2015 1:00,42.15,1.7,0.102
1/27/2015 2:00,42.79,1.6,0.102
1/27/2015 3:00,44.40,1.6,0.102
1/27/2015 4:00,43.75,1.5,0.102
1/27/2015 5:00,42.79,1.5,0.102
1/27/2015 6:00,42.15,1.5,0.102
1/27/2015 7:00,43.43,1.5,0.102
1/27/2015 8:00,46.04,1.5,0.102
1/27/2015 9:00,44.40,1.5,0.102
1/27/2015 10:00,44.72,1.5,0.102
1/27/2015 11:00,43.75,1.7,0.102
1/27/2015 12:00,49.42,1.8,0.101
1/27/2015 13:00,47.71,2,0.101
1/27/2015 14:00,45.05,2.2,0.101
1/27/2015 15:00,47.04,2.3,0.101
1/27/2015 16:00,52.22,2.4,0.101
1/27/2015 17:00,48.05,2.4,0.101
1/27/2015 18:00,49.08,2.4,0.101
1/27/2015 19:00,49.42,2.4,0.101
1/27/2015 20:00,49.08,2.4,0.101
1/27/2015 21:00,48.73,2.3,0.101
1/27/2015 22:00,48.73,2.3,0.101
1/27/2015 23:00,45.71,2.3,0.101
1/28/2015 0:00,47.37,2.3,0.101
1/28/2015 1:00,48.05,2.3,0.1
1/28/2015 2:00,45.71,2.3,0.101
1/28/2015 3:00,46.04,2.3,0.101
1/28/2015 4:00,46.37,2.3,0.101
1/28/2015 5:00,48.39,2.3,0.101
1/28/2015 6:00,48.39,2.2,0.101
1/28/2015 7:00,48.05,2.2,0.101
1/28/2015 8:00,49.77,2.2,0.101
1/28/2015 9:00,47.04,2.1,0.101
1/28/2015 10:00,45.38,2.1,0.101
1/28/2015 11:00,45.05,2.1,0.101
1/28/2015 12:00,46.37,2.1,0.101
1/28/2015 13:00,47.71,2.1,0.101
1/28/2015 14:00,49.08,2.3,0.1
1/28/2015 15:00,45.05,2.4,0.1
1/28/2015 16:00,47.04,2.5,0.1
1/28/2015 17:00,50.11,2.5,0.1
1/28/2015 18:00,46.04,2.4,0.1
1/28/2015 19:00,49.77,2.3,0.1
1/28/2015 20:00,46.70,2.3,0.101
1/28/2015 21:00,48.39,2.2,0.101
1/28/2015 22:00,49.42,2.1,0.101
1/28/2015 23:00,48.39,2.1,0.101
1/29/2015 0:00,47.71,2,0.101
1/29/2015 1:00,46.37,1.9,0.101
1/29/2015 2:00,48.39,1.8,0.101
1/29/2015 3:00,50.11,1.7,0.101
1/29/2015 4:00,47.71,1.6,0.101
1/29/2015 5:00,46.70,1.5,0.101
1/29/2015 6:00,50.11,1.5,0.101
1/29/2015 7:00,45.05,1.4,0.101
1/29/2015 8:00,48.73,1.4,0.101
1/29/2015 9:00,46.70,1.4,0.101
1/29/2015 10:00,45.05,1.4,0.101
1/29/2015 11:00,46.70,1.4,0.101
1/29/2015 12:00,46.37,1.5,0.101
1/29/2015 13:00,49.08,1.7,0.101
1/29/2015 14:00,47.37,1.9,0.101
1/29/2015 15:00,48.73,2.1,0.1
1/29/2015 16:00,48.73,2.2,0.1
1/29/2015 17:00,49.08,2.3,0.101
1/29/2015 18:00,49.08,2.2,0.105
1/29/2015 19:00,45.71,2.2,0.105
1/29/2015 20:00,47.71,2.2,0.105
1/29/2015 21:00,48.73,2.1,0.105
1/29/2015 22:00,49.77,2,0.105
1/29/2015 23:00,48.73,2,0.105
1/30/2015 0:00,47.71,1.9,0.106
1/30/2015 1:00,44.07,1.8,0.106
1/30/2015 2:00,51.87,1.7,0.106
1/30/2015 3:00,48.05,1.6,0.106
1/30/2015 4:00,47.04,1.5,0.106
1/30/2015 5:00,45.05,1.4,0.106
1/30/2015 6:00,45.05,1.3,0.106
1/30/2015 7:00,45.05,1.2,0.106
1/30/2015 8:00,46.04,1.1,0.106
1/30/2015 9:00,44.72,1,0.106
1/30/2015 10:00,45.71,1,0.106
1/30/2015 11:00,46.37,0.9,0.106
1/30/2015 12:00,46.04,1,0.106
1/30/2015 13:00,46.37,1.1,0.106
1/30/2015 14:00,47.04,1.3,0.106
1/30/2015 15:00,47.37,1.5,0.106
1/30/2015 16:00,49.08,1.7,0.106
1/30/2015 17:00,45.38,1.8,0.106
1/30/2015 18:00,50.11,1.8,0.106
1/30/2015 19:00,47.37,1.8,0.107
1/30/2015 20:00,48.73,1.7,0.107
1/30/2015 21:00,46.37,1.7,0.107
1/30/2015 22:00,48.05,1.6,0.107
1/30/2015 23:00,48.73,1.5,0.107
1/31/2015 0:00,44.40,1.4,0.108
1/31/2015 1:00,47.04,1.3,0.108
1/31/2015 2:00,46.04,1.2,0.107
1/31/2015 3:00,44.72,1.1,0.108
1/31/2015 4:00,45.38,0.9,0.106
1/31/2015 5:00,43.43,0.8,0.107
1/31/2015 6:00,43.11,0.7,0.107
1/31/2015 7:00,43.75,0.6,0.107